Find Starlink 34069

NORAD ID: 64920 Int'l Des: 2025-157 Owner: SPXS Country: US Constellation: starlink operational
LEOCIRCULAR

当前视图

正在加载3D地球...

About Starlink 34069

Starlink 34069 (NORAD 64920) is a starlink constellation satellite (v2 mini) launched Jul 26, 2025 by SPXS of US. It operates in LEO, CIRCULAR orbit with a mass of 575.00 kg.

关于 Starlink 34069

正在加载描述...

即将过境

Passes for default location (London). Set your location on the main map for personalized predictions.

高度历史

Loading altitude history...

两行轨道根数

1 64920U 25157S 26195.10556057 .00021817 00000-0 65520-3 0 9993
2 64920 53.1590 117.4194 0001188 58.6691 301.4428 15.34388284 55497
Epoch: Jul 14, 2026 • Age: 7 hours

当前状态

高度 471.0 km
远地点 / 近地点 N/A
速度 7.63 km/s
星下点 -25.87°S, 120.72°W
发射日期 Jul 26, 2025
运行时间 0.9 years
类型 internet

技术详情

分类 Payload
质量 575.00 kg
干质量 530.00 kg
总质量 575.00 kg
长度 0.30 m
直径 4.10 m
跨度 29.00 m
形状 Box + pan
制造商 SPXS
平台类型 Starlink V2MO
阶段状态 In Orbit
所有者/国家 SPXS/US

Most Searched